Location: Windsor
(43.2292°N, 89.3015°W)
Time: 00:17:31
(UTC+00:00)

DIWATA 2B (PO-101) - Pass Details

Date: 01 July 2022
Orbit: 583 x 599 km, 98.0° (Epoch: 15 August)

Event Time Altitude Azimuth Distance (km) Brightness Sun altitude
Exits shadow 06:29:10 - 102° (ESE) 2,181 ? -23.4°
Reaches altitude 10° 06:30:12 10° 91° (E) 1,940 ? -23.3°
Maximum altitude 06:32:15 13° 62° (ENE) 1,728 ? -23.3°
Drops below altitude 10° 06:34:17 10° 33° (NNE) 1,948 ? -23.2°
Sets 06:37:28 0° 7° (N) 2,856 ? -23.1°
